This is the latest recevied weather packets stored in our database for station/object OE6ACM-10. If no packets are shown the sender has not sent any weather packets the latest 10 day(s).
| Time | Temp. | Humidity | Pressure | Rain* | Wind** | Luminosity | Snow |
|---|---|---|---|---|---|---|---|
| 1777822779 | 43.33° C | 34% | 924.9 hPa | - | - | - | - |
| 1777822479 | 41.67° C | 35% | 925 hPa | - | - | - | - |
| 1777822179 | 42.22° C | 35% | 924.9 hPa | - | - | - | - |
| 1777821879 | 42.22° C | 34% | 925 hPa | - | - | - | - |
| 1777821579 | 42.78° C | 33% | 925 hPa | - | - | - | - |
| 1777821279 | 42.22° C | 33% | 925.1 hPa | - | - | - | - |
| 1777820979 | 43.33° C | 31% | 925 hPa | - | - | - | - |
| 1777820679 | 44.44° C | 30% | 925.1 hPa | - | - | - | - |
| 1777820379 | 45.56° C | 28% | 925.1 hPa | - | - | - | - |
| 1777820079 | 46.67° C | 28% | 925.1 hPa | - | - | - | - |
| 1777819779 | 45° C | 29% | 925.1 hPa | - | - | - | - |
| 1777819479 | 44.44° C | 28% | 925.1 hPa | - | - | - | - |
| 1777819179 | 46.11° C | 27% | 925.2 hPa | - | - | - | - |
| 1777818879 | 47.78° C | 27% | 925.4 hPa | - | - | - | - |
| 1777818579 | 48.33° C | 28% | 925.4 hPa | - | - | - | - |
| 1777818279 | 47.22° C | 28% | 925.5 hPa | - | - | - | - |
| 1777817979 | 45.56° C | 28% | 925.5 hPa | - | - | - | - |
| 1777817679 | 46.11° C | 27% | 925.6 hPa | - | - | - | - |
| 1777817379 | 48.33° C | 29% | 925.6 hPa | - | - | - | - |
| 1777817079 | 46.11° C | 29% | 925.6 hPa | - | - | - | - |
| 1777816779 | 47.22° C | 29% | 925.7 hPa | - | - | - | - |
| 1777816479 | 45.56° C | 31% | 925.8 hPa | - | - | - | - |
| 1777816179 | 45.56° C | 30% | 925.7 hPa | - | - | - | - |
| 1777815879 | 43.89° C | 32% | 925.9 hPa | - | - | - | - |
| 1777815579 | 43.89° C | 33% | 925.9 hPa | - | - | - | - |
* Rain since midnight (hover to see other rain measurements)
** Current wind speed in m/s (hover to see current wind gust speed)